Tracking 17145 objects as of 30-May-2015
HD Live streaming from Space Station

EDUSAT

Track EDUSAT now!
10-day predictions
EDUSAT is classified as:


NORAD ID: 37788
Int'l Code: 2011-044A
Perigee: 641.4 km
Apogee: 694.2 km
Inclination: 98.2 °
Period: 98.0 minutes
Semi major axis: 7038 km
RCS: 0.1421 m2 (medium)
Launch date: August 17, 2011
Source: Italy (IT)

EduSat is a microsatellite built by the University of Rome.
Your satellite tracking list
Your tracking list is empty





NASA's NSSDC Master Catalog

Two Line Element Set (TLE):
1 37788U 11044A   15149.27726338  .00000392  00000-0  73249-4 0  9994
2 37788 098.2036 250.9557 0037495 304.9087 078.4114 14.70135793202688

Source of the keplerian elements: AFSPC

N2YO: 298